Date,TemperatureHighF,TemperatureAvgF,TemperatureLowF,DewpointHighF,DewpointAvgF,DewpointLowF,HumidityHigh,HumidityAvg,HumidityLow,PressureMaxIn,PressureMinIn,WindSpeedMaxMPH,WindSpeedAvgMPH,GustSpeedMaxMPH,PrecipitationSumIn
2013-9-1,78,74,70,75,73,69,100,95,87,29.79,29.74,1,0,4,0.00
2013-9-2,72,70,68,72,70,67,100,99,97,29.75,29.71,0,0,0,0.02
2013-9-3,74,68,62,69,63,58,100,87,66,29.85,29.67,3,0,9,0.05
2013-9-4,76,66,58,63,59,56,95,81,57,29.96,29.84,2,0,6,0.00
2013-9-5,69,62,52,59,54,46,97,77,46,30.12,29.88,3,0,9,0.00
2013-9-6,64,54,46,48,46,43,95,74,46,30.22,30.12,1,0,4,0.00
2013-9-8,73,66,54,64,54,47,79,66,48,30.04,29.81,4,1,8,0.00
2013-9-9,68,58,44,60,52,42,96,80,65,30.19,30.03,2,0,5,0.00
2013-9-10,81,71,63,76,69,60,100,93,82,30.11,30.01,2,0,6,0.00
2013-9-11,88,77,70,80,74,69,100,89,74,30.07,29.92,2,0,5,0.00
2013-9-12,74,71,70,73,70,69,100,97,91,29.94,29.81,0,0,0,0.00
2013-9-13,57,55,54,52,50,50,87,85,83,29.82,29.80,2,1,4,0.10
2013-9-14,58,52,46,50,47,43,92,82,72,30.10,29.82,4,1,7,0.00
2013-9-15,66,52,40,55,47,39,98,83,57,30.19,30.05,1,0,5,0.00
2013-9-16,65,58,52,56,54,47,98,86,67,30.21,30.00,2,0,6,0.02
2013-9-17,58,50,41,46,42,38,92,77,55,30.39,30.21,2,0,5,0.00
2013-9-18,65,51,41,52,45,39,99,81,52,30.32,30.16,2,0,2,0.00
2013-9-19,70,56,44,56,49,42,99,81,50,30.16,30.04,1,0,3,0.00
2013-9-20,74,61,50,62,56,49,100,85,61,30.05,29.94,2,0,5,0.00
2013-9-21,73,62,54,63,58,53,98,87,62,29.95,29.64,3,1,7,0.64
2013-9-22,60,56,50,59,51,42,99,83,67,29.88,29.61,5,1,7,0.10
2013-9-23,58,51,44,46,43,41,87,76,64,30.01,29.87,4,2,8,0.00
2013-9-24,67,53,40,50,44,38,95,76,51,30.02,29.87,4,1,7,0.00
2013-9-25,65,53,41,55,47,39,97,83,58,29.93,29.85,1,0,5,0.00
2013-9-26,65,54,46,58,51,45,99,89,70,30.07,29.92,1,0,3,0.00
2013-9-27,63,55,46,55,51,44,98,87,73,30.23,30.07,1,0,2,0.00
2013-9-28,68,57,48,56,52,46,98,84,56,30.29,30.21,2,0,5,0.00
2013-9-29,66,56,47,58,52,46,99,88,68,30.20,30.04,1,0,3,0.00
2013-9-30,68,56,46,56,50,45,99,84,59,30.05,29.94,2,0,2,0.00